Regional Weather Roundup
Issued by NWS

Home | Current Version | Previous Version | Graphics & Text | Print | Product List | Glossary On
Versions: 1 2 3 4 5 6 7 8 9 10 11 12 13 14 15 16 17 18 19 20 21 22 23 24 25 26 27 28 29 30 31 32 33 34 35 36 37 38 39 40 41 42 43 44 45 46 47 48 49 50
000
ASUS43 KMPX 160601
RWRMN
WEATHER ROUNDUP FOR MINNESOTA
NATIONAL WEATHER SERVICE TWIN CITIES/CHANHASSEN MN
100 AM CDT MON OCT 16 2017


NOTE: "FAIR" INDICATES FEW OR NO CLOUDS BELOW 12,000 FEET WITH NO
SIGNIFICANT WEATHER AND/OR OBSTRUCTIONS TO VISIBILITY. N/A MEANS
CURRENT SKY AND/OR WEATHER CONDITIONS ARE NOT AVAILABLE.

MNZ060>063-068>070-160700-
   Twin Cities Metro

CITY           SKY/WX    TMP DP  RH WIND       PRES   REMARKS
TWIN CITIES    CLEAR     45  40  82 S3        30.21S
6HR MIN TEMP:  45; 6HR MAX TEMP:  50;

ST PAUL        CLEAR     42  40  92 CALM      30.22S
CRYSTAL        CLEAR     39  35  86 CALM      30.19F
BLAINE         CLEAR     39  39 100 CALM      30.20S
LAKEVILLE      CLEAR     39  37  93 CALM      30.21S
EDEN PRAIRIE   CLEAR     44  38  79 W5        30.20S
6HR MIN TEMP:  43; 6HR MAX TEMP:  50;

SOUTH ST PAUL  PTCLDY    42  38  84 CALM      30.20F
LAKE ELMO      FAIR      37  37 100 CALM      30.21S
$$
MNZ001>005-007-008-013>017-022>024-027-028-160700-
   Northwest Minnesota

CITY           SKY/WX    TMP DP  RH WIND       PRES   REMARKS
BEMIDJI        PTCLDY    37  33  83 SW6       30.13S
HALLOCK        CLOUDY    34  28  80 SW5       30.09S WCI  30
ROSEAU           N/A     37  30  75 SW6       30.08S
WARROAD        CLEAR     36  32  87 SW8       30.08S
CROOKSTON      CLOUDY    34  28  80 SW7       30.14S WCI  28
FOSSTON        CLEAR     30  28  93 SW6       30.14S WCI  24
DETROIT LAKES  CLEAR     39  37  93 SW3       30.16F
MOORHEAD       CLEAR     34  30  86 SW5       30.17F WCI  30
PARK RAPIDS    CLEAR     34  29  82 SW5       30.15S WCI  30
MAHNOMEN       FAIR      32  30  91 SW5       30.15S WCI  28
$$
MNZ006-009>011-018-025>026-160700-
   North Central Minnesota

CITY           SKY/WX    TMP DP  RH WIND       PRES   REMARKS
BAUDETTE       CLEAR     34  30  85 SW5       30.07S WCI  30
FLAG ISLAND    CLEAR     41  32  70 W12       30.05R
INTL FALLS     CLEAR     29  27  92 SW6       30.07S WCI  23
6HR MIN TEMP:  29; 6HR MAX TEMP:  40;

WASKISH        CLEAR     45  37  76 W9        30.10S
BIG FORK       CLEAR     30  30 100 CALM      30.10F
LONGVILLE      CLEAR     37  36  93 CALM      30.14S
GRAND RAPIDS   CLEAR     42  37  82 SW6       30.15S
CRANE LAKE     CLEAR     30  28  93 CALM      30.10S
ORR            CLEAR     36  32  87 CALM      30.08S
COOK           CLEAR     36  34  93 SW5       30.10F
WALKER         FAIR      37  32  82 W5        30.14S
$$
MNZ012-019>021-037-160700-
   Northeast Minnesota

CITY           SKY/WX    TMP DP  RH WIND       PRES   REMARKS
DULUTH         CLEAR     33  32  96 W9        30.13S WCI  25
6HR MIN TEMP:  33; 6HR MAX TEMP:  44;

ELY            CLEAR     36  32  87 CALM      30.10S
HIBBING        CLEAR     26  25  96 CALM      30.12S
EVELETH        CLEAR     32  32 100 W3        30.13S
DULUTH HARBOR  CLEAR     41  37  87 SW9       30.15F
TWO HARBORS    CLEAR     43  36  75 W7        30.11S
GRAND MARAIS     N/A     43  35  73 W5        30.11S
G MARAIS ARPRT CLEAR     34  27  75 W5        30.09S WCI  30
$$
MNZ029>031-032-039>041-046>048-054>057-064-160700-
   West Central Minnesota

CITY           SKY/WX    TMP DP  RH WIND       PRES   REMARKS
FERGUS FALLS   CLEAR     36  32  87 CALM      30.19S
WHEATON        CLEAR     41  32  70 W7        30.23R
MORRIS         CLEAR     39  34  81 W7        30.20S
ALEXANDRIA     CLEAR     38  34  85 W8        30.19S
ELBOW LAKE     FAIR      32  31  98 CALM      30.19S
WADENA         CLEAR     34  34 100 CALM      30.17S
GLENWOOD       CLEAR     39  36  87 W8        30.19S
APPLETON       CLEAR     37  34  87 W5        30.21F
BENSON         CLEAR     36  34  93 W3        30.22S
ORTONVILLE     CLEAR     41  34  75 W6        30.21F
MADISON        CLEAR     39  34  81 W6        30.22F
WILLMAR        FAIR      37  36  93 W5        30.22S
$$
MNZ033>034-036-042>043-049>051-058-059-160700-
   Central Minnesota

CITY           SKY/WX    TMP DP  RH WIND       PRES   REMARKS
ST CLOUD       CLEAR     37  37 100 CALM      30.19S
6HR MIN TEMP:  37; 6HR MAX TEMP:  44;

SAUK CENTRE    FAIR      38  35  90 CALM      30.19S
PAYNESVILLE    CLEAR     35  35 100 W3        30.20F
AITKIN         CLEAR     37  34  87 SW3       30.15S
PINE RIVER     CLEAR     30  30 100 CALM      30.19S
BRAINERD       CLEAR     32  31  96 SW5       30.18S WCI  27
STAPLES        CLEAR     36  34  93 CALM      30.17S
LONG PRAIRIE   FAIR      36  34  93 CALM      30.18F
LITTLE FALLS   MOCLDY    34  32  93 CALM      30.18F FOG
LITCHFIELD     CLEAR     43  39  87 CALM      30.21S
BUFFALO        CLEAR     40  37  89 CALM      30.22R
MAPLE LAKE     CLEAR     40  38  94 CALM      30.21S
HUTCHINSON     CLOUDY    35  35  99 CALM      30.22S
$$
MNZ037-044-045-052-053-160700-
   East Central Minnesota

CITY           SKY/WX    TMP DP  RH WIND       PRES   REMARKS
PRINCETON      CLEAR     36  34  93 CALM      30.20R
MORA           CLEAR     36  34  93 CALM      30.20R
CAMBRIDGE      CLEAR     37  37 100 CALM      30.20R
RUSH CITY      CLEAR     38  34  87 CALM      30.19S
MOOSE LAKE     CLEAR     32  32 100 W3        30.15R FOG
HINCKLEY       FAIR      32  32 100 CALM      30.17S FOG
CLOQUET        CLEAR     37  34  87 SW3       30.14S
MCGREGOR       CLEAR     41  36  81 W6        30.16S
$$
MNZ071>073-080-081-089-090-097-098-160700-
   Southwest Minnesota

CITY           SKY/WX    TMP DP  RH WIND       PRES   REMARKS
MONTEVIDEO     CLEAR     39  34  81 NW3       30.23S
GRANITE FALLS  CLEAR     37  34  90 SW7       30.24S
CANBY          CLEAR     43  33  69 W7        30.24F
MARSHALL       CLEAR     38  33  82 W8        30.25R
REDWOOD FALLS  CLEAR     43  34  70 W8        30.23R
OLIVIA         CLEAR     37  34  87 SW6       30.21S
PIPESTONE      CLEAR     41  34  75 W5        30.26S
WORTHINGTON    CLEAR     40  34  79 SW8       30.27R
JACKSON        CLEAR     37  32  81 CALM      30.26R
TRACY          CLEAR     45  36  70 W7        30.25S
SLAYTON        CLEAR     41  34  76 W8        30.26S
$$
MNZ065>067-074>077-082>085-091>093-160700-
   South Central Minnesota

CITY           SKY/WX    TMP DP  RH WIND       PRES   REMARKS
MANKATO        CLEAR     41  37  86 SW6       30.23S
NEW ULM          N/A     37  34  87 SW3       30.23S
ST JAMES       CLEAR     39  36  87 SW6       30.25S
FAIRMONT       CLEAR     38  34  85 CALM      30.25F
GLENCOE        CLEAR     38  38 100 CALM      30.21S
FARIBAULT      CLEAR     37  36  93 CALM      30.22F
OWATONNA       CLEAR     36  34  93 CALM      30.23S
WASECA         CLEAR     36  34  93 CALM      30.24S
ALBERT LEA     CLEAR     43  41  93 CALM      30.24S
$$
MNZ078>079-086>088-094>096-160700-
   Southeast Minnesota

CITY           SKY/WX    TMP DP  RH WIND       PRES   REMARKS
ROCHESTER      PTCLDY    42  36  79 W8        30.23R
6HR MIN TEMP:  40; 6HR MAX TEMP:  46;

RED WING       CLEAR     37  36  93 CALM      30.21S
STANTON        CLEAR     39  35  86 CALM      30.20F
DODGE CENTER   CLEAR     37  34  87 W3        30.23R
WINONA         CLEAR     41  37  87 CALM      30.23S
AUSTIN         CLEAR     43  36  75 CALM      30.23S
PRESTON        CLOUDY    42  34  74 W8        30.23S
$$
ABBREVIATIONS USED IN REMARKS
   TC - TEMPERATURES IN CELSIUS
  WCI - WIND CHILL INDEX
   HX - HEAT INDEX
  VSB - VISIBILITY
$$




USA.gov is the U.S. government's official web portal to all federal, state and local government web resources and services.